LOT6140 MDPC-EPWA

Flight info

Callsign LOT6140
Flight time N/A
Altitude 37000
Route CHUMA2T CHUMA Y315 KEEKA/M085F370 M597 FIVZE DCT 29N055W 33N050W 39N040W/M085F390 44N030W 48N020W DCT KOGAD DCT BIMGO DCT GAPLI/N0488F390 DCT GAJIT/N0490F410 DCT ENHAQ M197 REDFA L620 TACHA DCT OSNAD DCT HLZ DCT SUBIX DCT MOLIL P851 BIMPA
Aircraft B789/H-SDE1E2E3FGHIJ2J3J4J5M1RWXY/LB1D1

Departure

Time 2026-05-06 08:51
Airport Punta Cana International Airport (MDPC)

Arrival

Time N/A
Airport Warsaw Chopin Airport (EPWA)
Time Latitude Longitude Altitude Speed Heading
2026-05-06 07:46 18.56411 -68.36221 55 ft 0 kts 175°
2026-05-06 07:57 18.56412 -68.36221 55 ft 0 kts 175°
2026-05-06 08:17 18.56413 -68.36221 55 ft 0 kts 175°
2026-05-06 08:35 18.56423 -68.36222 48 ft 4 kts 180°
2026-05-06 08:35 18.56448 -68.36218 47 ft 4 kts 202°
2026-05-06 08:35 18.56468 -68.36205 47 ft 4 kts 233°
2026-05-06 08:35 18.56479 -68.36181 48 ft 4 kts 258°
2026-05-06 08:36 18.56482 -68.36160 51 ft 0 kts 265°
2026-05-06 08:44 18.56482 -68.36161 55 ft 0 kts 265°
2026-05-06 08:45 18.56481 -68.36167 55 ft 2 kts 265°
2026-05-06 08:45 18.56480 -68.36186 55 ft 4 kts 265°
2026-05-06 08:45 18.56477 -68.36219 55 ft 5 kts 265°
2026-05-06 08:45 18.56473 -68.36267 50 ft 8 kts 265°
2026-05-06 08:46 18.56467 -68.36346 55 ft 13 kts 266°
2026-05-06 08:46 18.56459 -68.36459 50 ft 18 kts 265°
2026-05-06 08:46 18.56474 -68.36589 49 ft 19 kts 296°
2026-05-06 08:46 18.56521 -68.36720 51 ft 20 kts 274°
2026-05-06 08:47 18.56512 -68.36871 53 ft 21 kts 263°
2026-05-06 08:47 18.56500 -68.37032 53 ft 23 kts 264°
2026-05-06 08:47 18.56485 -68.37203 55 ft 24 kts 264°
2026-05-06 08:47 18.56468 -68.37385 54 ft 25 kts 264°
2026-05-06 08:48 18.56453 -68.37574 52 ft 26 kts 265°
2026-05-06 08:48 18.56450 -68.37726 49 ft 12 kts 288°
2026-05-06 08:48 18.56488 -68.37767 55 ft 0 kts 336°
2026-05-06 08:49 18.56489 -68.37768 55 ft 1 kts 338°
2026-05-06 08:49 18.56498 -68.37771 50 ft 2 kts 341°
2026-05-06 08:50 18.56531 -68.37780 55 ft 8 kts 348°
2026-05-06 08:50 18.56589 -68.37763 49 ft 10 kts 46°
2026-05-06 08:50 18.56616 -68.37697 54 ft 10 kts 78°
2026-05-06 08:50 18.56627 -68.37604 57 ft 21 kts 84°
2026-05-06 08:51 18.56648 -68.37328 50 ft 63 kts 85°
2026-05-06 08:51 18.56708 -68.36659 51 ft 119 kts 84°
2026-05-06 08:51 18.56800 -68.35609 66 ft 165 kts 86°
2026-05-06 08:51 18.56943 -68.34471 868 ft 143 kts 84°
2026-05-06 08:52 18.57064 -68.33388 1272 ft 162 kts 89°
2026-05-06 08:52 18.57125 -68.32099 1652 ft 177 kts 91°
2026-05-06 08:52 18.57334 -68.30864 2421 ft 175 kts 64°
2026-05-06 08:52 18.58300 -68.30019 2822 ft 192 kts 17°
2026-05-06 08:53 18.59586 -68.29921 3656 ft 182 kts 359°
2026-05-06 08:53 18.60863 -68.30043 4138 ft 193 kts 357°
2026-05-06 08:53 18.62310 -68.30313 4299 ft 225 kts 347°
2026-05-06 08:53 18.63792 -68.30817 4917 ft 233 kts 346°
2026-05-06 08:54 18.65517 -68.31164 4816 ft 265 kts 354°
2026-05-06 08:54 18.67368 -68.31435 4724 ft 271 kts 354°
2026-05-06 08:54 18.69218 -68.31747 4627 ft 274 kts 352°
2026-05-06 08:54 18.71123 -68.32070 4515 ft 273 kts 357°
2026-05-06 08:55 18.73018 -68.32273 4416 ft 274 kts 353°
2026-05-06 08:55 18.74912 -68.32610 4553 ft 278 kts 353°
2026-05-06 08:55 18.76790 -68.32898 5579 ft 274 kts 354°
2026-05-06 08:55 18.78713 -68.33154 6313 ft 282 kts 354°
2026-05-06 08:56 18.80671 -68.33414 7114 ft 286 kts 353°
2026-05-06 08:56 18.82654 -68.33694 7906 ft 289 kts 353°
2026-05-06 08:56 18.84665 -68.33980 8677 ft 293 kts 353°
2026-05-06 08:56 18.86674 -68.34259 9448 ft 297 kts 353°
2026-05-06 08:57 18.88735 -68.34548 10194 ft 301 kts 352°
2026-05-06 08:57 18.90917 -68.34851 10416 ft 326 kts 352°
2026-05-06 08:57 18.93229 -68.35172 10474 ft 351 kts 352°
2026-05-06 08:57 18.95750 -68.35523 10608 ft 369 kts 352°
2026-05-06 08:58 18.98258 -68.35876 11391 ft 369 kts 352°
2026-05-06 08:58 19.00850 -68.36242 12059 ft 373 kts 352°
2026-05-06 08:58 19.03431 -68.36603 12742 ft 376 kts 352°
2026-05-06 08:58 19.06031 -68.36963 13418 ft 379 kts 352°
2026-05-06 08:59 19.08622 -68.37326 14052 ft 382 kts 351°
2026-05-06 08:59 19.11301 -68.37705 14659 ft 385 kts 351°
2026-05-06 08:59 19.13962 -68.38076 15277 ft 388 kts 351°
2026-05-06 08:59 19.16647 -68.38450 15884 ft 390 kts 351°
2026-05-06 09:00 19.19364 -68.38620 16436 ft 395 kts
2026-05-06 09:00 19.22047 -68.37938 17001 ft 401 kts 21°
2026-05-06 09:00 19.24458 -68.36430 17545 ft 407 kts 39°
2026-05-06 09:00 19.26458 -68.34282 18008 ft 413 kts 46°
2026-05-06 09:01 19.28388 -68.32008 18506 ft 417 kts 47°
2026-05-06 09:01 19.30306 -68.29697 19006 ft 419 kts 47°
2026-05-06 09:01 19.32249 -68.27393 19507 ft 420 kts 46°
2026-05-06 09:01 19.34212 -68.25095 19994 ft 422 kts 46°
2026-05-06 09:02 19.36178 -68.22778 20483 ft 424 kts 46°
2026-05-06 09:02 19.38145 -68.20441 20948 ft 426 kts 46°
2026-05-06 09:02 19.40121 -68.18098 21409 ft 428 kts 46°
2026-05-06 09:02 19.42111 -68.15746 21859 ft 429 kts 46°
2026-05-06 09:03 19.44109 -68.13384 22290 ft 431 kts 46°
2026-05-06 09:03 19.46111 -68.11010 22714 ft 433 kts 46°
2026-05-06 09:03 19.48122 -68.08625 23110 ft 435 kts 46°
2026-05-06 09:03 19.50144 -68.06229 23503 ft 437 kts 46°
2026-05-06 09:04 19.52173 -68.03822 23849 ft 439 kts 45°
2026-05-06 09:04 19.54214 -68.01405 24150 ft 441 kts 45°
2026-05-06 09:04 19.56264 -67.98975 24440 ft 443 kts 45°
2026-05-06 09:04 19.58319 -67.96526 24734 ft 446 kts 46°
2026-05-06 09:05 19.60385 -67.94068 25033 ft 448 kts 45°
2026-05-06 09:05 19.62466 -67.91598 25335 ft 450 kts 45°
2026-05-06 09:05 19.64556 -67.89114 25621 ft 452 kts 45°
2026-05-06 09:05 19.66655 -67.86618 25903 ft 454 kts 45°
2026-05-06 09:06 19.68761 -67.84109 26199 ft 457 kts 45°
2026-05-06 09:06 19.70880 -67.81586 26484 ft 459 kts 45°
2026-05-06 09:06 19.73010 -67.79050 26778 ft 461 kts 45°
2026-05-06 09:06 19.75152 -67.76498 27054 ft 464 kts 45°
2026-05-06 09:07 19.77301 -67.73934 27364 ft 466 kts 45°
2026-05-06 09:07 19.79462 -67.71358 27653 ft 468 kts 45°
2026-05-06 09:07 19.81632 -67.68769 27939 ft 471 kts 45°
2026-05-06 09:07 19.83815 -67.66163 28248 ft 473 kts 45°
2026-05-06 09:08 19.86008 -67.63544 28522 ft 476 kts 45°
2026-05-06 09:08 19.88209 -67.60914 28807 ft 478 kts 45°
2026-05-06 09:08 19.89703 -67.59128 29013 ft 479 kts 45°
2026-05-06 09:08 19.91925 -67.56471 29294 ft 482 kts 45°
2026-05-06 09:09 19.94154 -67.53804 29570 ft 484 kts 45°
2026-05-06 09:09 19.96396 -67.51121 29868 ft 487 kts 45°
2026-05-06 09:09 19.98649 -67.48423 30158 ft 489 kts 45°
2026-05-06 09:09 20.00912 -67.45712 30406 ft 491 kts 45°
2026-05-06 09:10 20.03186 -67.42986 30633 ft 494 kts 45°
2026-05-06 09:10 20.05469 -67.40247 30873 ft 496 kts 45°
2026-05-06 09:10 20.07767 -67.37489 31117 ft 499 kts 45°
2026-05-06 09:10 20.10073 -67.34720 31355 ft 501 kts 45°
2026-05-06 09:11 20.12387 -67.31940 31588 ft 503 kts 45°
2026-05-06 09:11 20.14712 -67.29145 31820 ft 506 kts 45°
2026-05-06 09:11 20.17047 -67.26338 32053 ft 508 kts 45°
2026-05-06 09:11 20.19393 -67.23515 32275 ft 510 kts 46°
2026-05-06 09:12 20.21749 -67.20679 32507 ft 512 kts 46°
2026-05-06 09:12 20.24117 -67.17828 32738 ft 514 kts 46°
2026-05-06 09:12 20.26490 -67.14969 32968 ft 516 kts 46°
2026-05-06 09:12 20.28866 -67.12103 33302 ft 516 kts 46°
2026-05-06 09:13 20.31247 -67.09231 33630 ft 516 kts 46°
2026-05-06 09:13 20.33621 -67.06368 33968 ft 516 kts 46°
2026-05-06 09:13 20.35999 -67.03497 34251 ft 516 kts 46°
2026-05-06 09:13 20.38369 -67.00633 34546 ft 516 kts 46°
2026-05-06 09:14 20.40743 -66.97764 34823 ft 515 kts 46°
2026-05-06 09:14 20.43112 -66.94900 35095 ft 515 kts 46°
2026-05-06 09:14 20.45479 -66.92036 35368 ft 515 kts 46°
2026-05-06 09:14 20.47845 -66.89173 35644 ft 514 kts 46°
2026-05-06 09:15 20.50212 -66.86306 35910 ft 514 kts 46°
2026-05-06 09:15 20.52573 -66.83445 36178 ft 514 kts 46°
2026-05-06 09:15 20.54933 -66.80583 36426 ft 514 kts 46°
2026-05-06 09:15 20.57293 -66.77723 36672 ft 514 kts 46°
2026-05-06 09:16 20.59651 -66.74861 36951 ft 513 kts 46°
2026-05-06 09:16 20.62010 -66.71998 37062 ft 516 kts 46°
2026-05-06 09:16 20.64383 -66.69115 37073 ft 517 kts 46°
2026-05-06 09:17 20.69096 -66.63383 37088 ft 511 kts 46°
2026-05-06 09:17 20.73785 -66.57680 37091 ft 511 kts 46°
2026-05-06 09:18 20.78466 -66.51977 37093 ft 510 kts 46°
2026-05-06 09:18 20.83142 -66.46276 37082 ft 510 kts 46°
2026-05-06 09:19 20.87823 -66.40562 37079 ft 511 kts 46°
2026-05-06 09:19 20.92507 -66.34840 37081 ft 512 kts 46°
2026-05-06 09:20 20.97167 -66.29139 37093 ft 512 kts 46°
2026-05-06 09:20 21.01855 -66.23400 37091 ft 512 kts 46°
2026-05-06 09:21 21.06545 -66.17651 37092 ft 513 kts 46°
2026-05-06 09:21 21.11240 -66.11892 37100 ft 514 kts 46°
2026-05-06 09:22 21.15936 -66.06123 37104 ft 514 kts 46°
2026-05-06 09:22 21.20633 -66.00349 37101 ft 514 kts 46°
2026-05-06 09:23 21.25332 -65.94565 37098 ft 515 kts 46°
2026-05-06 09:23 21.30034 -65.88771 37112 ft 516 kts 46°
2026-05-06 09:24 21.34860 -65.83086 37133 ft 513 kts 37°
2026-05-06 09:24 21.40275 -65.78095 37104 ft 514 kts 38°
2026-05-06 09:25 21.45694 -65.73082 37105 ft 515 kts 38°
2026-05-06 09:25 21.51121 -65.68056 37110 ft 515 kts 38°
2026-05-06 09:26 21.56547 -65.63030 37105 ft 515 kts 38°
2026-05-06 09:26 21.61929 -65.58034 37110 ft 515 kts 38°
2026-05-06 09:27 21.67358 -65.52995 37108 ft 516 kts 38°
2026-05-06 09:27 21.72794 -65.47940 37110 ft 517 kts 38°
2026-05-06 09:28 21.78236 -65.42877 37113 ft 518 kts 38°
2026-05-06 09:28 21.83681 -65.37803 37105 ft 517 kts 38°
2026-05-06 09:29 21.89124 -65.32728 37111 ft 518 kts 38°
2026-05-06 09:29 21.94573 -65.27640 37111 ft 518 kts 38°
2026-05-06 09:30 22.00018 -65.22552 37116 ft 518 kts 38°
2026-05-06 09:30 22.05457 -65.17464 37115 ft 518 kts 38°
2026-05-06 09:31 22.10659 -65.12098 37138 ft 521 kts 52°
2026-05-06 09:31 22.15001 -65.05782 37118 ft 525 kts 52°
2026-05-06 09:32 22.19208 -64.99635 37116 ft 525 kts 52°
2026-05-06 09:32 22.23260 -64.93732 37116 ft 526 kts 52°
2026-05-06 09:33 22.27601 -64.87376 37119 ft 526 kts 52°
2026-05-06 09:33 22.31955 -64.81014 37117 ft 527 kts 52°
2026-05-06 09:34 22.36307 -64.74634 37116 ft 528 kts 52°
2026-05-06 09:34 22.40667 -64.68241 37122 ft 528 kts 52°
2026-05-06 09:35 22.45023 -64.61843 37117 ft 529 kts 52°
2026-05-06 09:35 22.49383 -64.55434 37120 ft 529 kts 52°
2026-05-06 09:36 22.53741 -64.49018 37124 ft 529 kts 52°
2026-05-06 09:36 22.58097 -64.42598 37122 ft 529 kts 52°
2026-05-06 09:37 22.62456 -64.36164 37121 ft 530 kts 52°
2026-05-06 09:37 22.66818 -64.29721 37129 ft 531 kts 52°
2026-05-06 09:38 22.71162 -64.23295 37127 ft 532 kts 53°
2026-05-06 09:38 22.75529 -64.16827 37126 ft 532 kts 53°
2026-05-06 09:39 22.79899 -64.10347 37128 ft 533 kts 53°
2026-05-06 09:39 22.84273 -64.03851 37131 ft 533 kts 53°
2026-05-06 09:40 22.88649 -63.97347 37126 ft 534 kts 53°
2026-05-06 09:40 22.95213 -63.87572 37135 ft 535 kts 53°
2026-05-06 09:41 22.99586 -63.81050 37129 ft 534 kts 53°
2026-05-06 09:41 23.03958 -63.74521 37126 ft 535 kts 53°
2026-05-06 09:42 23.08332 -63.67981 37132 ft 535 kts 53°
2026-05-06 09:42 23.12703 -63.61439 37136 ft 536 kts 53°
2026-05-06 09:43 23.17049 -63.54923 37125 ft 536 kts 53°
2026-05-06 09:43 23.21423 -63.48359 37130 ft 536 kts 53°
2026-05-06 09:44 23.25797 -63.41785 37137 ft 537 kts 53°
2026-05-06 09:44 23.30174 -63.35200 37138 ft 538 kts 53°
2026-05-06 09:45 23.34553 -63.28603 37141 ft 538 kts 53°
2026-05-06 09:45 23.38929 -63.22000 37143 ft 538 kts 54°
2026-05-06 09:46 23.43305 -63.15390 37138 ft 538 kts 54°
2026-05-06 09:46 23.47687 -63.08762 37138 ft 539 kts 54°
2026-05-06 09:47 23.51724 -63.01902 37128 ft 539 kts 62°
2026-05-06 09:47 23.55326 -62.94724 37146 ft 540 kts 62°
2026-05-06 09:48 23.58965 -62.87563 37147 ft 540 kts 62°
2026-05-06 09:48 23.62581 -62.80384 37147 ft 541 kts 62°
2026-05-06 09:49 23.66191 -62.73234 37148 ft 542 kts 62°
2026-05-06 09:49 23.69818 -62.66025 37142 ft 542 kts 62°
2026-05-06 09:50 23.73445 -62.58811 37144 ft 543 kts 62°
2026-05-06 09:50 23.77071 -62.51589 37146 ft 543 kts 62°
2026-05-06 09:51 23.80696 -62.44358 37149 ft 542 kts 62°
2026-05-06 09:51 23.84315 -62.37125 37151 ft 543 kts 62°
2026-05-06 09:52 23.87933 -62.29886 37149 ft 543 kts 62°
2026-05-06 09:52 23.90937 -62.23867 37150 ft 543 kts 62°
2026-05-06 09:53 23.94546 -62.16624 37147 ft 543 kts 62°
2026-05-06 09:53 23.98157 -62.09369 37147 ft 543 kts 62°
2026-05-06 09:54 24.01764 -62.02109 37155 ft 543 kts 62°
2026-05-06 09:54 24.05370 -61.94843 37157 ft 544 kts 62°
2026-05-06 09:55 24.08976 -61.87562 37155 ft 544 kts 62°
2026-05-06 09:55 24.12581 -61.80275 37160 ft 544 kts 62°
2026-05-06 09:56 24.16183 -61.72981 37157 ft 545 kts 63°
2026-05-06 09:56 24.19783 -61.65681 37162 ft 545 kts 63°
2026-05-06 09:57 24.23382 -61.58371 37162 ft 545 kts 63°
2026-05-06 09:57 24.26977 -61.51058 37163 ft 545 kts 63°
2026-05-06 09:58 24.30568 -61.43743 37165 ft 545 kts 63°
2026-05-06 09:58 24.34157 -61.36420 37162 ft 545 kts 63°
2026-05-06 09:59 24.37742 -61.29094 37165 ft 545 kts 63°
2026-05-06 09:59 24.41322 -61.21766 37161 ft 545 kts 63°
2026-05-06 10:00 24.44899 -61.14434 37164 ft 545 kts 63°
2026-05-06 10:00 24.48473 -61.07096 37162 ft 545 kts 63°
2026-05-06 10:01 24.52045 -60.99750 37165 ft 545 kts 63°
2026-05-06 10:01 24.55615 -60.92398 37166 ft 546 kts 63°
2026-05-06 10:02 24.59181 -60.85042 37165 ft 545 kts 63°
2026-05-06 10:02 24.62740 -60.77691 37159 ft 544 kts 63°
2026-05-06 10:03 24.66291 -60.70342 37161 ft 544 kts 63°
2026-05-06 10:03 24.69831 -60.63005 37156 ft 543 kts 63°
2026-05-06 10:04 24.73368 -60.55671 37174 ft 543 kts 63°
2026-05-06 10:04 24.76904 -60.48305 37169 ft 545 kts 64°
2026-05-06 10:05 24.80449 -60.40933 37158 ft 544 kts 63°
2026-05-06 10:05 24.83972 -60.33581 37156 ft 542 kts 64°
2026-05-06 10:06 24.87483 -60.26247 37169 ft 542 kts 64°
2026-05-06 10:06 24.90999 -60.18890 37171 ft 542 kts 64°
2026-05-06 10:07 24.94507 -60.11538 37172 ft 542 kts 64°
2026-05-06 10:07 24.98012 -60.04181 37165 ft 542 kts 64°
2026-05-06 10:08 25.02243 -59.97341 37201 ft 543 kts 46°
2026-05-06 10:08 25.07412 -59.91234 37177 ft 545 kts 46°
2026-05-06 10:09 25.12577 -59.85115 37176 ft 545 kts 47°
2026-05-06 10:09 25.17740 -59.78986 37179 ft 545 kts 46°
2026-05-06 10:10 25.22900 -59.72858 37173 ft 544 kts 46°
2026-05-06 10:10 25.28046 -59.66733 37186 ft 544 kts 46°
2026-05-06 10:11 25.33161 -59.60642 37179 ft 543 kts 46°
2026-05-06 10:11 25.38297 -59.54514 37179 ft 543 kts 46°
2026-05-06 10:12 25.43429 -59.48385 37178 ft 543 kts 46°
2026-05-06 10:12 25.48561 -59.42245 37181 ft 543 kts 46°
2026-05-06 10:13 25.53691 -59.36101 37170 ft 543 kts 46°
2026-05-06 10:13 25.58817 -59.29953 37177 ft 543 kts 46°
2026-05-06 10:14 25.63940 -59.23801 37177 ft 543 kts 46°
2026-05-06 10:14 25.69030 -59.17679 37179 ft 543 kts 46°
2026-05-06 10:15 25.74153 -59.11510 37172 ft 543 kts 47°
2026-05-06 10:15 25.79264 -59.05345 37173 ft 543 kts 47°
2026-05-06 10:16 25.84383 -58.99166 37179 ft 544 kts 46°
2026-05-06 10:16 25.89499 -58.92979 37175 ft 544 kts 47°
2026-05-06 10:17 25.94608 -58.86792 37177 ft 543 kts 46°
2026-05-06 10:17 25.99703 -58.80614 37168 ft 543 kts 47°
2026-05-06 10:18 26.04802 -58.74423 37175 ft 542 kts 46°
2026-05-06 10:18 26.09893 -58.68234 37177 ft 543 kts 47°
2026-05-06 10:19 26.14983 -58.62035 37176 ft 542 kts 47°
2026-05-06 10:19 26.20073 -58.55829 37182 ft 543 kts 47°
2026-05-06 10:20 26.25158 -58.49619 37175 ft 542 kts 47°
2026-05-06 10:20 26.30235 -58.43412 37177 ft 542 kts 47°
2026-05-06 10:21 26.35307 -58.37201 37173 ft 541 kts 47°
2026-05-06 10:21 26.40375 -58.30988 37176 ft 542 kts 47°
2026-05-06 10:22 26.45442 -58.24765 37179 ft 542 kts 47°
2026-05-06 10:22 26.50509 -58.18536 37177 ft 542 kts 47°
2026-05-06 10:23 26.55567 -58.12305 37178 ft 541 kts 47°
2026-05-06 10:23 26.60627 -58.06068 37182 ft 542 kts 47°
2026-05-06 10:24 26.65685 -57.99821 37179 ft 541 kts 47°
2026-05-06 10:24 26.70704 -57.93615 37177 ft 542 kts 47°
2026-05-06 10:25 26.75750 -57.87363 37179 ft 541 kts 47°
2026-05-06 10:25 26.80800 -57.81105 37185 ft 542 kts 47°
2026-05-06 10:26 26.85845 -57.74835 37175 ft 541 kts 47°
2026-05-06 10:26 26.90886 -57.68570 37180 ft 545 kts 48°
2026-05-06 10:27 26.95993 -57.62204 37197 ft 552 kts 48°
2026-05-06 10:27 27.01124 -57.55805 37197 ft 552 kts 48°
2026-05-06 10:28 27.06254 -57.49390 37201 ft 552 kts 48°
2026-05-06 10:28 27.11379 -57.42990 37197 ft 549 kts 49°
2026-05-06 10:29 27.16487 -57.36579 37196 ft 551 kts 48°
2026-05-06 10:29 27.21606 -57.30166 37199 ft 551 kts 49°
2026-05-06 10:30 27.26720 -57.23731 37198 ft 552 kts 48°
2026-05-06 10:30 27.31829 -57.17307 37202 ft 551 kts 49°
2026-05-06 10:31 27.36933 -57.10871 37199 ft 551 kts 49°
2026-05-06 10:31 27.42037 -57.04433 37202 ft 552 kts 49°
2026-05-06 10:32 27.47136 -56.97984 37197 ft 551 kts 49°
2026-05-06 10:32 27.52191 -56.91583 37198 ft 551 kts 49°
2026-05-06 10:33 27.57309 -56.85081 37203 ft 553 kts 49°
2026-05-06 10:33 27.62380 -56.78670 37188 ft 550 kts 49°
2026-05-06 10:34 27.67467 -56.72170 37204 ft 553 kts 49°
2026-05-06 10:34 27.72573 -56.65687 37204 ft 553 kts 49°
2026-05-06 10:35 27.77662 -56.59181 37203 ft 553 kts 49°
2026-05-06 10:35 27.82757 -56.52674 37201 ft 551 kts 49°
2026-05-06 10:36 27.87835 -56.46184 37202 ft 552 kts 49°
2026-05-06 10:36 27.92899 -56.39682 37206 ft 552 kts 49°
2026-05-06 10:37 27.97989 -56.33163 37205 ft 552 kts 49°
2026-05-06 10:37 28.03057 -56.26632 37210 ft 553 kts 49°
2026-05-06 10:38 28.07274 -56.21212 37208 ft 552 kts 49°
2026-05-06 10:38 28.12330 -56.14681 37199 ft 551 kts 49°
2026-05-06 10:39 28.17391 -56.08146 37205 ft 552 kts 49°
2026-05-06 10:39 28.22449 -56.01607 37208 ft 552 kts 49°
2026-05-06 10:40 28.27507 -55.95067 37209 ft 552 kts 49°
2026-05-06 10:40 28.32557 -55.88503 37208 ft 551 kts 49°
2026-05-06 10:41 28.37624 -55.81933 37204 ft 552 kts 49°
2026-05-06 10:41 28.42669 -55.75370 37196 ft 552 kts 49°
2026-05-06 10:42 28.47709 -55.68788 37201 ft 551 kts 49°
2026-05-06 10:42 28.52753 -55.62211 37205 ft 552 kts 49°
2026-05-06 10:43 28.57786 -55.55616 37213 ft 552 kts 49°
2026-05-06 10:44 28.65333 -55.45730 37216 ft 551 kts 49°
2026-05-06 10:44 28.70362 -55.39131 37218 ft 551 kts 49°
2026-05-06 10:45 28.75383 -55.32527 37215 ft 552 kts 49°
2026-05-06 10:45 28.80407 -55.25909 37218 ft 552 kts 49°
2026-05-06 10:46 28.85431 -55.19284 37221 ft 552 kts 49°
2026-05-06 10:46 28.90446 -55.12656 37218 ft 552 kts 49°
2026-05-06 10:47 28.95459 -55.06023 37225 ft 552 kts 49°
2026-05-06 10:47 29.00497 -54.99409 37224 ft 551 kts 44°
2026-05-06 10:48 29.05857 -54.93140 37216 ft 551 kts 45°
2026-05-06 10:48 29.11203 -54.86844 37226 ft 552 kts 45°
2026-05-06 10:49 29.16556 -54.80550 37227 ft 551 kts 45°
2026-05-06 10:49 29.21898 -54.74256 37215 ft 552 kts 45°
2026-05-06 10:50 29.27203 -54.67990 37218 ft 551 kts 45°
2026-05-06 10:50 29.32542 -54.61678 37225 ft 551 kts 45°
2026-05-06 10:51 29.37879 -54.55350 37225 ft 551 kts 45°
2026-05-06 10:51 29.43200 -54.49046 37216 ft 549 kts 45°
2026-05-06 10:52 29.48503 -54.42733 37219 ft 550 kts 45°
2026-05-06 10:52 29.53815 -54.36425 37221 ft 550 kts 45°
2026-05-06 10:53 29.59117 -54.30094 37222 ft 551 kts 45°
2026-05-06 10:53 29.64430 -54.23763 37229 ft 550 kts 45°
2026-05-06 10:54 29.69723 -54.17423 37228 ft 550 kts 46°
2026-05-06 10:54 29.75020 -54.11076 37229 ft 550 kts 45°
2026-05-06 10:55 29.80326 -54.04718 37231 ft 551 kts 45°
2026-05-06 10:55 29.85625 -53.98344 37234 ft 551 kts 45°
2026-05-06 10:56 29.90927 -53.91962 37232 ft 551 kts 46°
2026-05-06 10:56 29.96228 -53.85568 37233 ft 552 kts 45°
2026-05-06 10:57 30.01488 -53.79225 37237 ft 551 kts 46°
2026-05-06 10:57 30.06770 -53.72822 37236 ft 550 kts 45°
2026-05-06 10:58 30.12054 -53.66428 37245 ft 550 kts 46°
2026-05-06 10:58 30.17331 -53.60016 37240 ft 550 kts 45°
2026-05-06 10:59 30.22610 -53.53603 37242 ft 551 kts 46°
2026-05-06 10:59 30.27887 -53.47172 37242 ft 551 kts 46°
2026-05-06 11:00 30.33162 -53.40736 37237 ft 551 kts 45°
2026-05-06 11:00 30.38439 -53.34295 37240 ft 551 kts 46°
2026-05-06 11:01 30.43715 -53.27832 37241 ft 552 kts 46°
2026-05-06 11:01 30.48992 -53.21367 37243 ft 552 kts 46°
2026-05-06 11:02 30.54259 -53.14896 37242 ft 552 kts 46°
2026-05-06 11:02 30.59486 -53.08471 37244 ft 551 kts 46°
2026-05-06 11:03 30.64740 -53.01991 37243 ft 551 kts 46°
2026-05-06 11:03 30.69992 -52.95511 37248 ft 550 kts 46°
2026-05-06 11:04 30.75231 -52.89033 37243 ft 550 kts 46°
2026-05-06 11:04 30.80473 -52.82543 37247 ft 550 kts 46°
2026-05-06 11:05 30.85707 -52.76044 37243 ft 551 kts 46°
2026-05-06 11:05 30.90943 -52.69541 37249 ft 550 kts 46°
2026-05-06 11:06 30.96171 -52.63029 37248 ft 550 kts 46°
2026-05-06 11:06 31.01391 -52.56522 37248 ft 549 kts 46°
2026-05-06 11:07 31.06603 -52.50011 37252 ft 550 kts 46°
2026-05-06 11:07 31.11819 -52.43483 37252 ft 550 kts 46°
2026-05-06 11:08 31.17031 -52.36950 37256 ft 550 kts 46°
2026-05-06 11:08 31.22244 -52.30404 37255 ft 550 kts 46°
2026-05-06 11:09 31.27450 -52.23855 37253 ft 549 kts 46°
2026-05-06 11:09 31.32618 -52.17343 37260 ft 550 kts 46°
2026-05-06 11:10 31.37819 -52.10779 37260 ft 550 kts 46°
2026-05-06 11:10 31.43014 -52.04209 37260 ft 550 kts 46°
2026-05-06 11:11 31.48213 -51.97625 37258 ft 550 kts 46°
2026-05-06 11:11 31.53403 -51.91037 37257 ft 550 kts 46°
2026-05-06 11:12 31.58590 -51.84445 37263 ft 550 kts 46°
2026-05-06 11:12 31.63770 -51.77848 37262 ft 550 kts 46°
2026-05-06 11:13 31.68949 -51.71242 37255 ft 549 kts 46°
2026-05-06 11:13 31.74121 -51.64632 37259 ft 549 kts 46°
2026-05-06 11:14 31.79293 -51.58012 37263 ft 549 kts 46°
2026-05-06 11:14 31.84462 -51.51382 37260 ft 550 kts 46°
2026-05-06 11:15 31.89628 -51.44744 37265 ft 550 kts 46°
2026-05-06 11:15 31.94787 -51.38104 37266 ft 550 kts 46°
2026-05-06 11:16 31.99951 -51.31446 37263 ft 550 kts 46°
2026-05-06 11:16 32.05103 -51.24790 37258 ft 550 kts 46°
2026-05-06 11:17 32.10257 -51.18121 37263 ft 550 kts 46°
2026-05-06 11:17 32.15411 -51.11440 37263 ft 550 kts 45°
2026-05-06 11:18 32.20555 -51.04760 37268 ft 550 kts 46°
2026-05-06 11:18 32.25665 -50.98111 37269 ft 550 kts 45°
2026-05-06 11:19 32.30801 -50.91416 37268 ft 549 kts 45°
2026-05-06 11:19 32.35933 -50.84714 37270 ft 549 kts 45°
2026-05-06 11:20 32.41056 -50.78011 37272 ft 549 kts 45°
2026-05-06 11:20 32.46171 -50.71308 37272 ft 548 kts 45°
2026-05-06 11:21 32.51278 -50.64603 37272 ft 548 kts 45°
2026-05-06 11:21 32.56383 -50.57887 37274 ft 548 kts 45°
2026-05-06 11:22 32.61484 -50.51165 37276 ft 548 kts 45°
2026-05-06 11:22 32.66586 -50.44430 37276 ft 548 kts 45°
2026-05-06 11:23 32.71682 -50.37688 37279 ft 549 kts 45°
2026-05-06 11:23 32.76775 -50.30940 37279 ft 548 kts 45°
2026-05-06 11:24 32.81862 -50.24186 37281 ft 548 kts 45°
2026-05-06 11:24 32.86941 -50.17431 37283 ft 548 kts 45°
2026-05-06 11:25 32.91156 -50.11815 37283 ft 547 kts 45°
2026-05-06 11:25 32.96223 -50.05052 37281 ft 548 kts 45°
2026-05-06 11:26 33.01260 -49.98154 37296 ft 548 kts 49°
2026-05-06 11:26 33.06085 -49.91178 37289 ft 549 kts 47°
2026-05-06 11:27 33.10920 -49.84136 37285 ft 549 kts 48°
2026-05-06 11:27 33.15757 -49.77077 37290 ft 549 kts 47°
2026-05-06 11:28 33.20594 -49.70021 37288 ft 549 kts 48°
2026-05-06 11:28 33.25422 -49.62945 37288 ft 549 kts 47°
2026-05-06 11:29 33.30255 -49.55867 37294 ft 549 kts 48°
2026-05-06 11:29 33.35066 -49.48793 37297 ft 548 kts 48°
2026-05-06 11:30 33.39879 -49.41713 37294 ft 547 kts 48°
2026-05-06 11:30 33.44665 -49.34650 37283 ft 546 kts 48°
2026-05-06 11:31 33.49451 -49.27582 37285 ft 547 kts 48°
2026-05-06 11:31 33.54233 -49.20498 37286 ft 546 kts 48°
2026-05-06 11:32 33.59003 -49.13424 37290 ft 545 kts 48°
2026-05-06 11:32 33.63765 -49.06345 37291 ft 545 kts 48°
2026-05-06 11:33 33.68518 -48.99266 37305 ft 544 kts 48°
2026-05-06 11:33 33.73257 -48.92195 37297 ft 543 kts 48°
2026-05-06 11:34 33.77993 -48.85113 37296 ft 543 kts 48°
2026-05-06 11:34 33.82722 -48.78030 37305 ft 543 kts 48°
2026-05-06 11:35 33.87440 -48.70947 37303 ft 542 kts 48°
2026-05-06 11:35 33.92117 -48.63913 37300 ft 541 kts 48°
2026-05-06 11:36 33.96816 -48.56833 37302 ft 541 kts 48°
2026-05-06 11:36 34.01510 -48.49746 37308 ft 541 kts 48°
2026-05-06 11:37 34.06192 -48.42661 37309 ft 540 kts 49°
2026-05-06 11:37 34.10868 -48.35574 37309 ft 539 kts 49°
2026-05-06 11:38 34.15527 -48.28497 37314 ft 539 kts 49°
2026-05-06 11:38 34.20182 -48.21413 37314 ft 538 kts 49°
2026-05-06 11:39 34.24830 -48.14325 37316 ft 538 kts 49°
2026-05-06 11:39 34.29467 -48.07240 37312 ft 537 kts 49°
2026-05-06 11:40 34.34095 -48.00156 37314 ft 537 kts 49°
2026-05-06 11:40 34.38722 -47.93058 37318 ft 537 kts 49°
2026-05-06 11:41 34.43346 -47.85950 37314 ft 537 kts 49°
2026-05-06 11:41 34.47935 -47.78883 37316 ft 537 kts 49°
2026-05-06 11:42 34.52542 -47.71774 37313 ft 536 kts 49°
2026-05-06 11:42 34.57143 -47.64660 37316 ft 536 kts 49°
2026-05-06 11:43 34.61745 -47.57529 37320 ft 537 kts 49°
2026-05-06 11:43 34.66342 -47.50393 37322 ft 536 kts 49°
2026-05-06 11:44 34.73233 -47.39668 37325 ft 537 kts 49°
2026-05-06 11:44 34.77820 -47.32511 37327 ft 536 kts 49°
2026-05-06 11:45 34.82399 -47.25351 37327 ft 536 kts 49°
2026-05-06 11:45 34.86976 -47.18179 37330 ft 536 kts 49°
2026-05-06 11:46 34.91549 -47.11002 37329 ft 536 kts 49°
2026-05-06 11:46 34.96115 -47.03819 37332 ft 536 kts 49°
2026-05-06 11:47 35.00678 -46.96626 37331 ft 536 kts 49°
2026-05-06 11:47 35.05238 -46.89424 37335 ft 536 kts 49°
2026-05-06 11:48 35.09787 -46.82223 37325 ft 535 kts 49°
2026-05-06 11:48 35.14327 -46.75025 37329 ft 535 kts 49°
2026-05-06 11:49 35.18870 -46.67804 37340 ft 535 kts 49°
2026-05-06 11:49 35.23399 -46.60592 37339 ft 535 kts 49°
2026-05-06 11:50 35.27895 -46.53416 37342 ft 535 kts 49°
2026-05-06 11:50 35.32418 -46.46184 37342 ft 535 kts 49°
2026-05-06 11:51 35.36928 -46.38955 37343 ft 533 kts 49°
2026-05-06 11:51 35.41437 -46.31718 37351 ft 534 kts 49°
2026-05-06 11:52 35.45937 -46.24474 37350 ft 534 kts 49°
2026-05-06 11:52 35.50436 -46.17222 37348 ft 535 kts 49°
2026-05-06 11:53 35.54941 -46.09942 37354 ft 535 kts 49°
2026-05-06 11:53 35.59442 -46.02655 37352 ft 536 kts 49°
2026-05-06 11:54 35.63940 -45.95355 37354 ft 536 kts 49°
2026-05-06 11:54 35.68433 -45.88049 37355 ft 536 kts 49°
2026-05-06 11:55 35.72930 -45.80722 37358 ft 536 kts 49°
2026-05-06 11:55 35.77420 -45.73391 37364 ft 536 kts 49°
2026-05-06 11:56 35.81909 -45.66045 37358 ft 537 kts 49°
2026-05-06 11:56 35.86399 -45.58681 37362 ft 537 kts 49°
2026-05-06 11:57 35.90891 -45.51300 37368 ft 538 kts 49°
2026-05-06 11:57 35.95380 -45.43908 37367 ft 538 kts 49°
2026-05-06 11:58 35.99864 -45.36505 37368 ft 538 kts 49°
2026-05-06 11:58 36.04338 -45.29108 37376 ft 537 kts 49°
2026-05-06 11:59 36.08803 -45.21704 37377 ft 537 kts 49°
2026-05-06 11:59 36.13263 -45.14297 37377 ft 537 kts 48°
2026-05-06 12:00 36.17724 -45.06870 37380 ft 537 kts 48°
2026-05-06 12:00 36.22182 -44.99433 37384 ft 539 kts 48°
2026-05-06 12:01 36.26648 -44.91966 37378 ft 539 kts 48°
2026-05-06 12:01 36.31079 -44.84541 37388 ft 539 kts 48°
2026-05-06 12:02 36.35529 -44.77068 37390 ft 539 kts 48°
2026-05-06 12:02 36.39988 -44.69566 37388 ft 540 kts 48°
2026-05-06 12:03 36.44441 -44.62052 37397 ft 541 kts 48°
2026-05-06 12:03 36.48898 -44.54520 37394 ft 541 kts 48°
2026-05-06 12:04 36.53353 -44.46972 37397 ft 542 kts 48°
2026-05-06 12:04 36.57804 -44.39414 37402 ft 541 kts 48°
2026-05-06 12:05 36.62245 -44.31856 37393 ft 541 kts 48°
2026-05-06 12:05 36.66679 -44.24296 37393 ft 541 kts 47°
2026-05-06 12:06 36.71116 -44.16712 37401 ft 542 kts 47°
2026-05-06 12:06 36.75543 -44.09126 37400 ft 541 kts 47°
2026-05-06 12:07 36.79968 -44.01531 37397 ft 541 kts 47°
2026-05-06 12:07 36.84385 -43.93927 37401 ft 541 kts 47°
2026-05-06 12:08 36.88798 -43.86317 37405 ft 540 kts 47°
2026-05-06 12:08 36.93201 -43.78706 37413 ft 541 kts 47°
2026-05-06 12:09 36.97608 -43.71070 37414 ft 542 kts 47°
2026-05-06 12:09 37.02011 -43.63426 37410 ft 542 kts 47°
2026-05-06 12:10 37.05669 -43.57060 37411 ft 541 kts 47°
2026-05-06 12:10 37.10057 -43.49407 37418 ft 541 kts 47°
2026-05-06 12:11 37.14444 -43.41741 37417 ft 541 kts 47°
2026-05-06 12:11 37.18818 -43.34076 37419 ft 541 kts 47°
2026-05-06 12:12 37.23186 -43.26411 37417 ft 540 kts 47°
2026-05-06 12:12 37.27546 -43.18736 37423 ft 540 kts 47°
2026-05-06 12:13 37.31903 -43.11053 37430 ft 540 kts 47°
2026-05-06 12:13 37.36249 -43.03368 37428 ft 539 kts 46°
2026-05-06 12:14 37.40585 -42.95686 37427 ft 538 kts 46°
2026-05-06 12:14 37.44908 -42.88008 37433 ft 537 kts 46°
2026-05-06 12:15 37.49220 -42.80332 37416 ft 537 kts 46°
2026-05-06 12:15 37.53526 -42.72651 37426 ft 537 kts 46°
2026-05-06 12:16 37.57838 -42.64938 37433 ft 538 kts 46°
2026-05-06 12:16 37.62137 -42.57230 37438 ft 537 kts 46°
2026-05-06 12:17 37.66435 -42.49513 37432 ft 538 kts 46°
2026-05-06 12:17 37.70723 -42.41788 37435 ft 537 kts 46°
2026-05-06 12:18 37.74977 -42.34112 37436 ft 537 kts 46°
2026-05-06 12:18 37.79253 -42.26373 37438 ft 537 kts 46°
2026-05-06 12:19 37.83522 -42.18630 37441 ft 537 kts 46°
2026-05-06 12:19 37.87790 -42.10876 37433 ft 536 kts 46°
2026-05-06 12:20 37.92048 -42.03111 37437 ft 536 kts 46°
2026-05-06 12:20 37.96297 -41.95367 37438 ft 536 kts 46°
2026-05-06 12:21 38.00534 -41.87592 37432 ft 536 kts 46°
2026-05-06 12:21 38.04776 -41.79816 37436 ft 536 kts 46°
2026-05-06 12:22 38.09006 -41.72030 37434 ft 536 kts 46°
2026-05-06 12:22 38.13235 -41.64237 37439 ft 535 kts 46°
2026-05-06 12:23 38.17443 -41.56457 37438 ft 534 kts 46°
2026-05-06 12:23 38.21649 -41.48672 37433 ft 534 kts 46°
2026-05-06 12:24 38.25841 -41.40882 37435 ft 534 kts 46°
2026-05-06 12:24 38.30030 -41.33093 37426 ft 533 kts 46°
2026-05-06 12:25 38.34203 -41.25298 37434 ft 532 kts 46°
2026-05-06 12:25 38.38342 -41.17562 37436 ft 531 kts 46°
2026-05-06 12:26 38.42491 -41.09781 37435 ft 531 kts 46°
2026-05-06 12:26 38.46638 -41.01991 37436 ft 531 kts 46°
2026-05-06 12:27 38.50784 -40.94180 37436 ft 532 kts 46°
2026-05-06 12:27 38.54925 -40.86361 37435 ft 532 kts 46°
2026-05-06 12:28 38.59067 -40.78521 37442 ft 532 kts 46°
2026-05-06 12:28 38.63203 -40.70676 37435 ft 533 kts 46°
2026-05-06 12:29 38.67329 -40.62824 37434 ft 532 kts 46°
2026-05-06 12:29 38.71456 -40.54958 37433 ft 532 kts 46°
2026-05-06 12:30 38.75587 -40.47064 37432 ft 533 kts 46°
2026-05-06 12:30 38.79708 -40.39165 37421 ft 533 kts 46°
2026-05-06 12:31 38.83831 -40.31252 37428 ft 534 kts 46°
2026-05-06 12:31 38.87953 -40.23313 37431 ft 534 kts 46°
2026-05-06 12:32 38.92072 -40.15361 37429 ft 535 kts 46°
2026-05-06 12:32 38.96189 -40.07399 37430 ft 536 kts 46°
2026-05-06 12:33 39.00328 -39.99434 37428 ft 531 kts 42°
2026-05-06 12:33 39.04735 -39.91910 37428 ft 531 kts 43°
2026-05-06 12:34 39.09167 -39.84290 37425 ft 532 kts 43°
2026-05-06 12:34 39.13608 -39.76662 37424 ft 533 kts 43°
2026-05-06 12:35 39.18052 -39.69001 37426 ft 533 kts 43°
2026-05-06 12:35 39.22493 -39.61323 37424 ft 535 kts 43°
2026-05-06 12:36 39.26936 -39.53632 37422 ft 535 kts 43°
2026-05-06 12:36 39.31386 -39.45903 37423 ft 537 kts 43°
2026-05-06 12:37 39.35838 -39.38155 37415 ft 537 kts 43°
2026-05-06 12:37 39.40283 -39.30396 37420 ft 537 kts 44°
2026-05-06 12:38 39.44729 -39.22622 37421 ft 538 kts 44°
2026-05-06 12:38 39.49177 -39.14822 37417 ft 538 kts 44°
2026-05-06 12:39 39.53618 -39.07018 37415 ft 538 kts 44°
2026-05-06 12:39 39.58055 -38.99197 37412 ft 538 kts 44°
2026-05-06 12:40 39.62493 -38.91361 37418 ft 539 kts 44°
2026-05-06 12:40 39.66921 -38.83519 37411 ft 539 kts 44°
2026-05-06 12:41 39.71354 -38.75651 37400 ft 540 kts 44°
2026-05-06 12:41 39.75779 -38.67776 37404 ft 540 kts 44°
2026-05-06 12:42 39.80200 -38.59891 37406 ft 540 kts 44°
2026-05-06 12:42 39.84624 -38.51979 37402 ft 540 kts 45°
2026-05-06 12:43 39.89033 -38.44073 37406 ft 539 kts 45°
2026-05-06 12:43 39.93443 -38.36150 37401 ft 541 kts 45°
2026-05-06 12:44 39.97857 -38.28195 37400 ft 541 kts 45°
2026-05-06 12:44 40.02260 -38.20240 37398 ft 541 kts 45°
2026-05-06 12:45 40.06667 -38.12260 37398 ft 542 kts 45°
2026-05-06 12:46 40.13235 -38.00328 37386 ft 541 kts 45°
2026-05-06 12:46 40.17653 -37.92275 37395 ft 541 kts 45°
2026-05-06 12:47 40.22041 -37.84258 37388 ft 542 kts 45°
2026-05-06 12:47 40.26416 -37.76242 37386 ft 541 kts 45°
2026-05-06 12:48 40.30785 -37.68220 37387 ft 541 kts 46°
2026-05-06 12:48 40.35148 -37.60187 37385 ft 541 kts 46°
2026-05-06 12:49 40.39505 -37.52143 37383 ft 541 kts 46°
2026-05-06 12:49 40.43857 -37.44088 37381 ft 540 kts 46°
2026-05-06 12:50 40.48199 -37.36033 37383 ft 541 kts 46°
2026-05-06 12:50 40.52512 -37.28009 37375 ft 541 kts 46°
2026-05-06 12:51 40.56848 -37.19921 37373 ft 541 kts 46°
2026-05-06 12:51 40.61174 -37.11833 37371 ft 540 kts 47°
2026-05-06 12:52 40.65489 -37.03741 37370 ft 540 kts 47°
2026-05-06 12:52 40.69797 -36.95645 37366 ft 539 kts 47°
2026-05-06 12:53 40.74094 -36.87544 37362 ft 539 kts 47°
2026-05-06 12:53 40.78385 -36.79436 37363 ft 539 kts 47°
2026-05-06 12:54 40.82672 -36.71316 37344 ft 539 kts 48°
2026-05-06 12:54 40.86952 -36.63186 37351 ft 539 kts 48°
2026-05-06 12:55 40.90504 -36.56422 37353 ft 539 kts 48°
2026-05-06 12:55 40.94769 -36.48281 37353 ft 539 kts 48°
2026-05-06 12:56 40.99034 -36.40118 37358 ft 539 kts 49°
2026-05-06 12:56 41.03296 -36.31944 37346 ft 539 kts 49°
2026-05-06 12:57 41.07551 -36.23756 37343 ft 540 kts 49°
2026-05-06 12:57 41.11798 -36.15561 37339 ft 539 kts 49°
2026-05-06 12:58 41.16042 -36.07356 37338 ft 539 kts 49°
2026-05-06 12:58 41.20278 -35.99140 37336 ft 540 kts 50°
2026-05-06 12:59 41.24518 -35.90893 37322 ft 540 kts 50°
2026-05-06 12:59 41.28749 -35.82646 37326 ft 540 kts 50°
2026-05-06 13:00 41.32977 -35.74381 37326 ft 541 kts 50°
2026-05-06 13:00 41.37204 -35.66094 37330 ft 541 kts 50°
2026-05-06 13:01 41.41428 -35.57792 37325 ft 541 kts 50°
2026-05-06 13:01 41.45644 -35.49479 37325 ft 541 kts 51°
2026-05-06 13:02 41.49854 -35.41162 37324 ft 541 kts 51°
2026-05-06 13:02 41.54055 -35.32834 37314 ft 540 kts 51°
2026-05-06 13:03 41.58245 -35.24512 37317 ft 540 kts 51°
2026-05-06 13:03 41.62429 -35.16174 37313 ft 540 kts 51°
2026-05-06 13:04 41.66613 -35.07813 37308 ft 541 kts 51°
2026-05-06 13:04 41.70797 -34.99430 37312 ft 542 kts 51°
2026-05-06 13:05 41.74976 -34.91031 37297 ft 542 kts 52°
2026-05-06 13:05 41.79152 -34.82625 37303 ft 541 kts 52°
2026-05-06 13:06 41.83282 -34.74272 37302 ft 541 kts 52°
2026-05-06 13:06 41.87434 -34.65869 37302 ft 540 kts 52°
2026-05-06 13:07 41.91599 -34.57404 37298 ft 539 kts 52°
2026-05-06 13:07 41.95722 -34.49008 37294 ft 538 kts 52°
2026-05-06 13:08 41.99834 -34.40605 37293 ft 538 kts 52°
2026-05-06 13:08 42.03937 -34.32203 37290 ft 538 kts 53°
2026-05-06 13:09 42.08010 -34.23834 37290 ft 537 kts 53°
2026-05-06 13:09 42.12097 -34.15415 37284 ft 537 kts 53°
2026-05-06 13:10 42.16179 -34.06984 37286 ft 537 kts 53°
2026-05-06 13:10 42.20253 -33.98544 37279 ft 536 kts 53°
2026-05-06 13:11 42.24314 -33.90110 37279 ft 536 kts 53°
2026-05-06 13:11 42.28368 -33.81662 37261 ft 536 kts 53°
2026-05-06 13:12 42.32410 -33.73220 37264 ft 535 kts 53°
2026-05-06 13:12 42.36446 -33.64764 37269 ft 535 kts 53°
2026-05-06 13:13 42.40478 -33.56294 37266 ft 535 kts 54°
2026-05-06 13:13 42.44500 -33.47821 37263 ft 536 kts 54°
2026-05-06 13:14 42.48527 -33.39312 37261 ft 537 kts 54°
2026-05-06 13:14 42.52556 -33.30774 37260 ft 537 kts 54°
2026-05-06 13:15 42.56577 -33.22231 37257 ft 537 kts 54°
2026-05-06 13:15 42.60589 -33.13681 37249 ft 537 kts 54°
2026-05-06 13:16 42.64599 -33.05110 37250 ft 538 kts 54°
2026-05-06 13:16 42.68601 -32.96532 37247 ft 537 kts 54°
2026-05-06 13:17 42.72598 -32.87942 37248 ft 537 kts 54°
2026-05-06 13:17 42.76560 -32.79401 37239 ft 538 kts 54°
2026-05-06 13:18 42.80545 -32.70782 37241 ft 538 kts 54°
2026-05-06 13:18 42.84523 -32.62159 37230 ft 538 kts 54°
2026-05-06 13:19 42.88497 -32.53516 37231 ft 538 kts 54°
2026-05-06 13:19 42.92467 -32.44858 37227 ft 538 kts 55°
2026-05-06 13:20 42.96429 -32.36191 37224 ft 538 kts 55°
2026-05-06 13:20 43.00386 -32.27509 37219 ft 539 kts 55°
2026-05-06 13:21 43.04338 -32.18813 37224 ft 538 kts 55°
2026-05-06 13:21 43.08277 -32.10122 37218 ft 537 kts 55°
2026-05-06 13:22 43.12205 -32.01428 37214 ft 537 kts 55°
2026-05-06 13:22 43.16126 -31.92721 37210 ft 537 kts 55°
2026-05-06 13:23 43.20036 -31.84016 37208 ft 536 kts 55°
2026-05-06 13:23 43.23940 -31.75298 37205 ft 536 kts 56°
2026-05-06 13:24 43.27835 -31.66573 37202 ft 537 kts 56°
2026-05-06 13:24 43.31732 -31.57818 37203 ft 538 kts 56°
2026-05-06 13:25 43.35598 -31.49108 37196 ft 537 kts 56°
2026-05-06 13:25 43.39506 -31.40275 37179 ft 537 kts 56°
2026-05-06 13:26 43.43380 -31.31493 37178 ft 537 kts 56°
2026-05-06 13:26 43.47215 -31.22774 37182 ft 536 kts 56°
2026-05-06 13:27 43.51067 -31.13990 37188 ft 536 kts 56°
2026-05-06 13:27 43.54910 -31.05196 37189 ft 535 kts 56°
2026-05-06 13:28 43.58744 -30.96401 37175 ft 535 kts 56°
2026-05-06 13:28 43.62570 -30.87595 37172 ft 535 kts 56°
2026-05-06 13:29 43.66395 -30.78765 37177 ft 536 kts 56°
2026-05-06 13:29 43.70208 -30.69937 37170 ft 535 kts 56°
2026-05-06 13:30 43.74019 -30.61085 37162 ft 536 kts 57°
2026-05-06 13:30 43.77818 -30.52233 37160 ft 535 kts 57°
2026-05-06 13:31 43.81610 -30.43375 37146 ft 535 kts 57°
2026-05-06 13:31 43.85392 -30.34506 37155 ft 535 kts 57°
2026-05-06 13:32 43.89169 -30.25626 37146 ft 535 kts 57°
2026-05-06 13:32 43.92942 -30.16726 37141 ft 534 kts 57°
2026-05-06 13:33 43.96696 -30.07845 37139 ft 533 kts 57°
2026-05-06 13:33 44.00474 -29.98991 37143 ft 530 kts 52°
2026-05-06 13:34 44.04556 -29.90423 37133 ft 532 kts 54°
2026-05-06 13:34 44.08595 -29.81863 37128 ft 532 kts 53°
2026-05-06 13:35 44.12665 -29.73262 37128 ft 532 kts 54°
2026-05-06 13:35 44.16713 -29.64643 37124 ft 532 kts 54°
2026-05-06 13:36 44.20760 -29.56025 37123 ft 532 kts 54°
2026-05-06 13:36 44.24795 -29.47391 37120 ft 531 kts 54°
2026-05-06 13:37 44.28828 -29.38752 37118 ft 531 kts 54°
2026-05-06 13:37 44.32874 -29.30043 37120 ft 531 kts 54°
2026-05-06 13:38 44.36207 -29.22854 37113 ft 530 kts 54°
2026-05-06 13:38 44.40858 -29.12792 37117 ft 529 kts 54°
2026-05-06 13:39 44.44849 -29.04134 37114 ft 530 kts 54°
2026-05-06 13:39 44.48189 -28.96862 37114 ft 530 kts 54°
2026-05-06 13:40 44.52812 -28.86772 37117 ft 530 kts 54°
2026-05-06 13:40 44.56142 -28.79481 37118 ft 532 kts 54°
2026-05-06 13:40 44.58141 -28.75096 37342 ft 533 kts 54°
2026-05-06 13:41 44.60133 -28.70719 37720 ft 531 kts 54°
2026-05-06 13:41 44.62116 -28.66352 38123 ft 529 kts 54°
2026-05-06 13:41 44.64088 -28.62007 38507 ft 527 kts 54°
2026-05-06 13:41 44.66053 -28.57672 38856 ft 524 kts 54°
2026-05-06 13:42 44.67981 -28.53410 39098 ft 524 kts 54°
2026-05-06 13:42 44.71897 -28.44733 39098 ft 524 kts 54°
2026-05-06 13:43 44.75795 -28.36067 39101 ft 519 kts 55°
2026-05-06 13:43 44.79648 -28.27485 39099 ft 518 kts 55°
2026-05-06 13:44 44.83459 -28.18959 39098 ft 518 kts 55°
2026-05-06 13:44 44.87289 -28.10375 39105 ft 517 kts 55°
2026-05-06 13:45 44.91106 -28.01787 39101 ft 517 kts 55°
2026-05-06 13:45 44.96817 -27.88891 39101 ft 516 kts 56°
2026-05-06 13:46 45.00612 -27.80295 39105 ft 515 kts 56°
2026-05-06 13:46 45.04396 -27.71691 39109 ft 515 kts 56°
2026-05-06 13:47 45.08172 -27.63084 39115 ft 515 kts 56°
2026-05-06 13:47 45.11939 -27.54466 39120 ft 515 kts 56°
2026-05-06 13:48 45.15697 -27.45844 39126 ft 514 kts 56°
2026-05-06 13:48 45.19448 -27.37214 39125 ft 514 kts 56°
2026-05-06 13:49 45.23195 -27.28570 39124 ft 514 kts 56°
2026-05-06 13:49 45.26931 -27.19918 39129 ft 514 kts 56°
2026-05-06 13:50 45.30659 -27.11262 39123 ft 514 kts 56°
2026-05-06 13:50 45.34377 -27.02598 39130 ft 514 kts 56°
2026-05-06 13:51 45.38097 -26.93914 39128 ft 514 kts 56°
2026-05-06 13:51 45.41808 -26.85216 39128 ft 514 kts 57°
2026-05-06 13:52 45.45506 -26.76513 39128 ft 514 kts 57°
2026-05-06 13:52 45.49205 -26.67795 39131 ft 514 kts 57°
2026-05-06 13:53 45.52898 -26.59074 39131 ft 515 kts 57°
2026-05-06 13:53 45.56581 -26.50317 39132 ft 515 kts 57°
2026-05-06 13:54 45.60262 -26.41564 39128 ft 515 kts 57°
2026-05-06 13:54 45.63910 -26.32855 39128 ft 513 kts 57°
2026-05-06 13:55 45.67571 -26.24070 39128 ft 515 kts 57°
2026-05-06 13:55 45.71234 -26.15292 39137 ft 513 kts 57°
2026-05-06 13:56 45.74862 -26.06513 39131 ft 512 kts 57°
2026-05-06 13:56 45.78494 -25.97755 39133 ft 512 kts 57°
2026-05-06 13:57 45.82113 -25.88967 39135 ft 512 kts 58°
2026-05-06 13:57 45.85722 -25.80169 39135 ft 512 kts 58°
2026-05-06 13:58 45.89328 -25.71392 39136 ft 512 kts 58°
2026-05-06 13:58 45.92926 -25.62576 39134 ft 511 kts 58°
2026-05-06 13:59 45.96509 -25.53771 39133 ft 511 kts 58°
2026-05-06 13:59 46.00084 -25.44962 39136 ft 510 kts 58°
2026-05-06 14:00 46.03655 -25.36138 39137 ft 509 kts 58°
2026-05-06 14:00 46.07198 -25.27322 39135 ft 509 kts 58°
2026-05-06 14:01 46.10748 -25.18538 39130 ft 507 kts 58°
2026-05-06 14:01 46.14269 -25.09709 39134 ft 505 kts 58°
2026-05-06 14:02 46.17773 -25.00951 39135 ft 503 kts 58°
2026-05-06 14:02 46.21240 -24.92233 39119 ft 505 kts 59°
2026-05-06 14:03 46.24750 -24.83425 39126 ft 507 kts 58°
2026-05-06 14:03 46.28252 -24.74649 39120 ft 504 kts 58°
2026-05-06 14:04 46.31775 -24.65864 39119 ft 506 kts 58°
2026-05-06 14:04 46.35289 -24.57114 39125 ft 501 kts 59°
2026-05-06 14:05 46.38792 -24.48376 39131 ft 502 kts 58°
2026-05-06 14:05 46.42301 -24.39644 39127 ft 500 kts 58°
2026-05-06 14:06 46.45799 -24.30921 39129 ft 500 kts 59°
2026-05-06 14:06 46.49300 -24.22199 39135 ft 503 kts 59°
2026-05-06 14:07 46.52823 -24.13490 39135 ft 499 kts 59°
2026-05-06 14:07 46.56341 -24.04790 39138 ft 500 kts 59°
2026-05-06 14:08 46.59865 -23.96089 39141 ft 499 kts 59°
2026-05-06 14:08 46.63399 -23.87372 39139 ft 500 kts 58°
2026-05-06 14:09 46.66937 -23.78696 39141 ft 497 kts 59°
2026-05-06 14:09 46.70454 -23.70056 39140 ft 499 kts 58°
2026-05-06 14:10 46.74003 -23.61372 39143 ft 499 kts 58°
2026-05-06 14:10 46.77563 -23.52630 39141 ft 497 kts 58°
2026-05-06 14:11 46.81042 -23.44001 39148 ft 495 kts 58°
2026-05-06 14:11 46.84506 -23.35297 39142 ft 495 kts 58°
2026-05-06 14:12 46.87926 -23.26596 39145 ft 493 kts 58°
2026-05-06 14:12 46.91341 -23.17861 39145 ft 496 kts 58°
2026-05-06 14:13 46.94760 -23.09103 39142 ft 495 kts 58°
2026-05-06 14:13 46.98174 -23.00356 39146 ft 495 kts 59°
2026-05-06 14:14 47.01594 -22.91589 39146 ft 495 kts 59°
2026-05-06 14:14 47.05003 -22.82835 39148 ft 494 kts 59°
2026-05-06 14:15 47.08412 -22.74066 39145 ft 495 kts 59°
2026-05-06 14:15 47.11827 -22.65281 39144 ft 495 kts 59°
2026-05-06 14:16 47.15227 -22.56499 39145 ft 494 kts 59°
2026-05-06 14:16 47.18619 -22.47727 39149 ft 493 kts 59°
2026-05-06 14:17 47.21995 -22.38969 39147 ft 493 kts 59°
2026-05-06 14:17 47.25365 -22.30196 39149 ft 492 kts 59°
2026-05-06 14:18 47.28725 -22.21424 39145 ft 491 kts 59°
2026-05-06 14:18 47.32071 -22.12656 39145 ft 491 kts 59°
2026-05-06 14:19 47.35409 -22.03869 39142 ft 491 kts 59°
2026-05-06 14:19 47.38733 -21.95067 39149 ft 491 kts 59°
2026-05-06 14:20 47.42043 -21.86267 39147 ft 490 kts 59°
2026-05-06 14:20 47.45345 -21.77448 39142 ft 491 kts 59°
2026-05-06 14:21 47.48639 -21.68592 39132 ft 492 kts 59°
2026-05-06 14:21 47.51924 -21.59707 39142 ft 492 kts 59°
2026-05-06 14:22 47.55201 -21.50802 39142 ft 493 kts 59°
2026-05-06 14:22 47.58461 -21.41889 39143 ft 493 kts 59°
2026-05-06 14:23 47.61164 -21.34451 39144 ft 493 kts 59°
2026-05-06 14:23 47.64413 -21.25492 39148 ft 494 kts 59°
2026-05-06 14:24 47.67666 -21.16523 39143 ft 494 kts 59°
2026-05-06 14:24 47.70930 -21.07521 39142 ft 496 kts 59°
2026-05-06 14:25 47.74203 -20.98494 39143 ft 497 kts 59°
2026-05-06 14:25 47.77477 -20.89462 39142 ft 496 kts 59°
2026-05-06 14:26 47.80751 -20.80424 39141 ft 495 kts 59°
2026-05-06 14:26 47.83992 -20.71468 39138 ft 495 kts 59°
2026-05-06 14:27 47.87257 -20.62445 39141 ft 495 kts 59°
2026-05-06 14:27 47.90521 -20.53419 39141 ft 495 kts 59°
2026-05-06 14:28 47.93787 -20.44385 39138 ft 495 kts 59°
2026-05-06 14:28 47.96714 -20.35077 39133 ft 496 kts 66°
2026-05-06 14:29 47.99227 -20.25476 39140 ft 496 kts 67°
2026-05-06 14:29 48.01638 -20.15820 39136 ft 497 kts 68°
2026-05-06 14:30 48.04026 -20.06132 39135 ft 496 kts 68°
2026-05-06 14:30 48.06394 -19.96469 39129 ft 496 kts 68°
2026-05-06 14:31 48.08756 -19.86791 39130 ft 495 kts 68°
2026-05-06 14:31 48.11111 -19.77122 39132 ft 495 kts 68°
2026-05-06 14:32 48.13461 -19.67449 39131 ft 494 kts 68°
2026-05-06 14:32 48.15807 -19.57770 39126 ft 494 kts 68°
2026-05-06 14:33 48.18148 -19.48087 39131 ft 495 kts 68°
2026-05-06 14:33 48.20333 -19.38302 39129 ft 495 kts 69°
2026-05-06 14:34 48.23029 -19.28873 39129 ft 492 kts 60°
2026-05-06 14:34 48.26218 -19.19917 39126 ft 492 kts 63°
2026-05-06 14:35 48.29080 -19.10463 39129 ft 492 kts 62°
2026-05-06 14:35 48.32108 -19.01252 39124 ft 492 kts 62°
2026-05-06 14:36 48.35005 -18.92001 39123 ft 492 kts 62°
2026-05-06 14:36 48.37966 -18.82716 39121 ft 492 kts 62°
2026-05-06 14:37 48.40895 -18.73410 39123 ft 492 kts 62°
2026-05-06 14:37 48.43828 -18.64093 39124 ft 492 kts 62°
2026-05-06 14:38 48.46746 -18.54776 39120 ft 492 kts 62°
2026-05-06 14:38 48.49659 -18.45440 39120 ft 492 kts 62°
2026-05-06 14:39 48.52563 -18.36103 39120 ft 492 kts 62°
2026-05-06 14:39 48.55457 -18.26758 39119 ft 491 kts 62°
2026-05-06 14:40 48.58340 -18.17418 39122 ft 491 kts 63°
2026-05-06 14:40 48.61214 -18.08069 39121 ft 491 kts 63°
2026-05-06 14:41 48.64082 -17.98705 39114 ft 491 kts 63°
2026-05-06 14:41 48.66938 -17.89347 39116 ft 490 kts 63°
2026-05-06 14:42 48.69784 -17.79983 39119 ft 489 kts 63°
2026-05-06 14:42 48.72617 -17.70631 39116 ft 489 kts 63°
2026-05-06 14:43 48.75445 -17.61254 39116 ft 489 kts 63°
2026-05-06 14:43 48.78262 -17.51879 39113 ft 488 kts 63°
2026-05-06 14:44 48.81069 -17.42503 39117 ft 488 kts 63°
2026-05-06 14:45 48.85262 -17.28431 39111 ft 487 kts 63°
2026-05-06 14:45 48.88038 -17.19068 39116 ft 486 kts 63°
2026-05-06 14:46 48.90808 -17.09692 39114 ft 486 kts 63°
2026-05-06 14:46 48.93567 -17.00313 39109 ft 486 kts 64°
2026-05-06 14:47 48.96316 -16.90936 39110 ft 485 kts 64°
2026-05-06 14:47 48.99053 -16.81561 39112 ft 484 kts 64°
2026-05-06 14:48 49.01781 -16.72182 39110 ft 484 kts 64°
2026-05-06 14:48 49.04500 -16.62798 39113 ft 484 kts 64°
2026-05-06 14:49 49.07214 -16.53396 39109 ft 484 kts 64°
2026-05-06 14:49 49.09920 -16.43985 39109 ft 484 kts 64°
2026-05-06 14:50 49.12615 -16.34569 39106 ft 484 kts 64°
2026-05-06 14:50 49.15304 -16.25141 39103 ft 484 kts 64°
2026-05-06 14:51 49.17985 -16.15702 39092 ft 484 kts 64°
2026-05-06 14:51 49.20663 -16.06240 39092 ft 486 kts 64°
2026-05-06 14:52 49.23322 -15.96808 39100 ft 486 kts 64°
2026-05-06 14:52 49.25988 -15.87308 39107 ft 486 kts 64°
2026-05-06 14:53 49.28646 -15.77803 39098 ft 486 kts 64°
2026-05-06 14:53 49.31298 -15.68280 39105 ft 486 kts 64°
2026-05-06 14:54 49.33941 -15.58754 39100 ft 486 kts 65°
2026-05-06 14:54 49.36580 -15.49200 39100 ft 487 kts 65°
2026-05-06 14:55 49.39215 -15.39618 39099 ft 487 kts 65°
2026-05-06 14:55 49.41840 -15.30039 39098 ft 487 kts 65°
2026-05-06 14:56 49.44454 -15.20462 39099 ft 486 kts 65°
2026-05-06 14:56 49.47062 -15.10866 39097 ft 487 kts 65°
2026-05-06 14:57 49.49482 -15.01144 39116 ft 489 kts 76°
2026-05-06 14:57 49.50049 -14.90675 39097 ft 494 kts 87°
2026-05-06 14:58 49.50065 -14.80105 39095 ft 494 kts 88°
2026-05-06 14:58 49.50094 -14.69540 39095 ft 494 kts 88°
2026-05-06 14:59 49.50105 -14.58975 39089 ft 493 kts 88°
2026-05-06 14:59 49.50109 -14.48428 39088 ft 493 kts 88°
2026-05-06 15:00 49.50102 -14.37881 39087 ft 493 kts 88°
2026-05-06 15:00 49.50087 -14.27347 39085 ft 492 kts 88°
2026-05-06 15:01 49.50061 -14.16811 39082 ft 493 kts 88°
2026-05-06 15:01 49.50026 -14.06279 39084 ft 492 kts 88°
2026-05-06 15:02 49.50459 -13.95822 39093 ft 489 kts 78°
2026-05-06 15:02 49.51592 -13.85487 39080 ft 489 kts 78°
2026-05-06 15:03 49.52711 -13.75167 39079 ft 489 kts 79°
2026-05-06 15:03 49.53821 -13.64839 39084 ft 489 kts 79°
2026-05-06 15:04 49.54922 -13.54507 39079 ft 489 kts 79°
2026-05-06 15:04 49.56010 -13.44210 39079 ft 490 kts 79°
2026-05-06 15:05 49.57095 -13.33840 39078 ft 490 kts 79°
2026-05-06 15:05 49.58173 -13.23458 39077 ft 491 kts 79°
2026-05-06 15:06 49.59241 -13.13062 39077 ft 491 kts 79°
2026-05-06 15:06 49.60131 -13.04342 39075 ft 492 kts 79°
2026-05-06 15:07 49.61186 -12.93896 39073 ft 493 kts 79°
2026-05-06 15:07 49.62233 -12.83445 39070 ft 493 kts 79°
2026-05-06 15:08 49.63268 -12.73008 39066 ft 493 kts 80°
2026-05-06 15:08 49.64296 -12.62547 39068 ft 493 kts 80°
2026-05-06 15:09 49.65315 -12.52067 39074 ft 494 kts 80°
2026-05-06 15:09 49.66326 -12.41581 39071 ft 493 kts 80°
2026-05-06 15:10 49.67326 -12.31100 39074 ft 493 kts 80°
2026-05-06 15:10 49.68319 -12.20592 39073 ft 494 kts 80°
2026-05-06 15:11 49.69301 -12.10096 39070 ft 493 kts 80°
2026-05-06 15:11 49.70271 -11.99620 39066 ft 493 kts 81°
2026-05-06 15:12 49.71231 -11.89144 39060 ft 492 kts 81°
2026-05-06 15:12 49.72182 -11.78662 39058 ft 493 kts 81°
2026-05-06 15:13 49.73123 -11.68178 39058 ft 492 kts 81°
2026-05-06 15:13 49.74054 -11.57698 39057 ft 492 kts 81°
2026-05-06 15:14 49.74976 -11.47213 39054 ft 492 kts 81°
2026-05-06 15:14 49.75889 -11.36717 39053 ft 492 kts 81°
2026-05-06 15:15 49.76790 -11.26232 39054 ft 492 kts 81°
2026-05-06 15:15 49.77684 -11.15737 39051 ft 492 kts 81°
2026-05-06 15:16 49.78569 -11.05228 39053 ft 493 kts 81°
2026-05-06 15:16 49.79445 -10.94695 39059 ft 493 kts 82°
2026-05-06 15:17 49.80311 -10.84172 39057 ft 493 kts 82°
2026-05-06 15:17 49.81169 -10.73625 39059 ft 493 kts 82°
2026-05-06 15:18 49.82017 -10.63084 39057 ft 494 kts 82°
2026-05-06 15:18 49.82857 -10.52519 39054 ft 494 kts 82°
2026-05-06 15:19 49.83687 -10.41945 39057 ft 495 kts 82°
2026-05-06 15:19 49.84510 -10.31348 39051 ft 495 kts 82°
2026-05-06 15:20 49.85322 -10.20752 39048 ft 496 kts 82°
2026-05-06 15:20 49.86126 -10.10142 39046 ft 496 kts 82°
2026-05-06 15:21 49.86920 -9.99531 39046 ft 495 kts 82°
2026-05-06 15:21 49.87702 -9.88941 39047 ft 494 kts 82°
2026-05-06 15:22 49.88473 -9.78365 39040 ft 493 kts 83°
2026-05-06 15:22 49.89235 -9.67786 39042 ft 494 kts 83°
2026-05-06 15:23 49.89988 -9.57192 39037 ft 494 kts 83°
2026-05-06 15:23 49.90730 -9.46608 39038 ft 494 kts 83°
2026-05-06 15:24 49.91464 -9.36012 39041 ft 494 kts 83°
2026-05-06 15:24 49.92187 -9.25411 39042 ft 494 kts 83°
2026-05-06 15:25 49.92901 -9.14804 39037 ft 494 kts 83°
2026-05-06 15:25 49.93606 -9.04193 39036 ft 494 kts 83°
2026-05-06 15:26 49.94301 -8.93577 39036 ft 494 kts 83°
2026-05-06 15:26 49.94987 -8.82962 39035 ft 495 kts 83°
2026-05-06 15:27 49.95663 -8.72326 39030 ft 495 kts 83°
2026-05-06 15:27 49.96330 -8.61681 39030 ft 495 kts 83°
2026-05-06 15:28 49.96991 -8.50992 39028 ft 493 kts 84°
2026-05-06 15:28 49.97418 -8.43973 39025 ft 493 kts 84°
2026-05-06 15:29 49.98071 -8.33129 39027 ft 494 kts 84°
2026-05-06 15:29 49.98705 -8.22421 39029 ft 495 kts 84°
2026-05-06 15:30 49.99326 -8.11777 39026 ft 495 kts 84°
2026-05-06 15:30 50.00025 -8.01143 39037 ft 493 kts 76°
2026-05-06 15:31 50.02272 -7.91103 39031 ft 494 kts 67°
2026-05-06 15:31 50.04819 -7.81185 39028 ft 493 kts 67°
2026-05-06 15:32 50.08592 -7.66293 39029 ft 493 kts 67°
2026-05-06 15:32 50.11103 -7.56354 39030 ft 493 kts 68°
2026-05-06 15:33 50.13605 -7.46393 39028 ft 494 kts 68°
2026-05-06 15:33 50.16101 -7.36420 39026 ft 494 kts 68°
2026-05-06 15:34 50.18586 -7.26440 39030 ft 494 kts 68°
2026-05-06 15:34 50.21069 -7.16428 39033 ft 495 kts 68°
2026-05-06 15:35 50.23544 -7.06402 39030 ft 494 kts 68°
2026-05-06 15:35 50.26004 -6.96389 39033 ft 494 kts 68°
2026-05-06 15:36 50.28460 -6.86345 39034 ft 494 kts 68°
2026-05-06 15:36 50.30908 -6.76300 39034 ft 495 kts 68°
2026-05-06 15:37 50.33347 -6.66233 39024 ft 494 kts 68°
2026-05-06 15:37 50.35775 -6.56170 39024 ft 494 kts 68°
2026-05-06 15:38 50.38192 -6.46108 39026 ft 493 kts 68°
2026-05-06 15:38 50.40600 -6.36034 39024 ft 494 kts 68°
2026-05-06 15:39 50.43001 -6.25941 39027 ft 494 kts 68°
2026-05-06 15:39 50.45396 -6.15832 39027 ft 495 kts 68°
2026-05-06 15:40 50.47786 -6.05691 39019 ft 496 kts 69°
2026-05-06 15:40 50.50170 -5.95534 39019 ft 496 kts 69°
2026-05-06 15:41 50.52544 -5.85368 39017 ft 496 kts 69°
2026-05-06 15:41 50.54909 -5.75188 39011 ft 495 kts 69°
2026-05-06 15:42 50.57266 -5.65003 39006 ft 496 kts 69°
2026-05-06 15:42 50.59213 -5.56548 39007 ft 495 kts 69°
2026-05-06 15:43 50.61554 -5.46340 39007 ft 496 kts 69°
2026-05-06 15:43 50.63887 -5.36111 39003 ft 496 kts 69°
2026-05-06 15:44 50.66215 -5.25867 39003 ft 497 kts 69°
2026-05-06 15:44 50.68530 -5.15618 39002 ft 497 kts 69°
2026-05-06 15:45 50.70840 -5.05345 39002 ft 497 kts 69°
2026-05-06 15:45 50.73142 -4.95061 39005 ft 497 kts 70°
2026-05-06 15:46 50.75432 -4.84777 39006 ft 497 kts 70°
2026-05-06 15:46 50.77700 -4.74546 39002 ft 497 kts 70°
2026-05-06 15:47 50.79973 -4.64238 39003 ft 497 kts 70°
2026-05-06 15:47 50.82238 -4.53916 39000 ft 497 kts 70°
2026-05-06 15:48 50.84495 -4.43573 39001 ft 497 kts 70°
2026-05-06 15:48 50.86745 -4.33217 38999 ft 497 kts 70°
2026-05-06 15:49 50.88985 -4.22855 38996 ft 497 kts 70°
2026-05-06 15:49 50.91214 -4.12488 38996 ft 498 kts 70°
2026-05-06 15:50 50.93440 -4.02084 38996 ft 498 kts 70°
2026-05-06 15:50 50.95655 -3.91676 38997 ft 498 kts 70°
2026-05-06 15:51 50.97862 -3.81256 38996 ft 499 kts 70°
2026-05-06 15:51 51.00043 -3.70902 38996 ft 499 kts 71°
2026-05-06 15:52 51.02236 -3.60442 39000 ft 499 kts 71°
2026-05-06 15:52 51.04418 -3.49973 39000 ft 499 kts 71°
2026-05-06 15:53 51.06591 -3.39496 38999 ft 499 kts 71°
2026-05-06 15:53 51.08756 -3.29002 39000 ft 499 kts 71°
2026-05-06 15:54 51.10913 -3.18494 39002 ft 499 kts 71°
2026-05-06 15:54 51.13059 -3.07982 38998 ft 500 kts 71°
2026-05-06 15:55 51.15195 -2.97464 38999 ft 500 kts 71°
2026-05-06 15:55 51.17327 -2.86906 38998 ft 500 kts 71°
2026-05-06 15:56 51.19448 -2.76352 38996 ft 500 kts 71°
2026-05-06 15:56 51.21556 -2.65803 38999 ft 500 kts 71°
2026-05-06 15:57 51.23656 -2.55232 38999 ft 500 kts 72°
2026-05-06 15:57 51.25746 -2.44657 38998 ft 500 kts 72°
2026-05-06 15:58 51.27824 -2.34083 39001 ft 499 kts 72°
2026-05-06 15:58 51.29895 -2.23491 39001 ft 499 kts 72°
2026-05-06 15:59 51.31955 -2.12898 39002 ft 499 kts 72°
2026-05-06 15:59 51.34004 -2.02296 39006 ft 499 kts 72°
2026-05-06 16:00 51.36292 -1.91819 38999 ft 500 kts 70°
2026-05-06 16:00 51.38574 -1.81312 39002 ft 500 kts 70°
2026-05-06 16:01 51.40908 -1.70829 39001 ft 500 kts 70°
2026-05-06 16:01 51.43201 -1.60290 38999 ft 501 kts 70°
2026-05-06 16:02 51.45504 -1.49757 38996 ft 500 kts 70°
2026-05-06 16:02 51.47785 -1.39219 38997 ft 501 kts 70°
2026-05-06 16:03 51.50063 -1.28665 38999 ft 501 kts 70°
2026-05-06 16:03 51.52332 -1.18086 39003 ft 502 kts 70°
2026-05-06 16:04 51.54169 -1.07270 38999 ft 503 kts 75°
2026-05-06 16:04 51.55921 -0.96394 39000 ft 503 kts 75°
2026-05-06 16:05 51.57658 -0.85496 39000 ft 503 kts 75°
2026-05-06 16:05 51.59388 -0.74596 38997 ft 503 kts 75°
2026-05-06 16:06 51.61101 -0.63721 38998 ft 502 kts 75°
2026-05-06 16:06 51.62807 -0.52817 38998 ft 502 kts 75°
2026-05-06 16:07 51.64502 -0.41912 38997 ft 503 kts 76°
2026-05-06 16:07 51.66189 -0.30987 39053 ft 502 kts 76°
2026-05-06 16:08 51.67928 -0.20114 39062 ft 500 kts 73°
2026-05-06 16:08 51.69647 -0.09340 39044 ft 501 kts 76°
2026-05-06 16:09 51.71360 0.01247 39031 ft 502 kts 75°
2026-05-06 16:09 51.73025 0.12118 38999 ft 503 kts 76°
2026-05-06 16:10 51.74721 0.23055 38997 ft 502 kts 76°
2026-05-06 16:10 51.76392 0.33967 38996 ft 501 kts 76°
2026-05-06 16:11 51.78055 0.44901 38988 ft 501 kts 76°
2026-05-06 16:11 51.79722 0.55920 38987 ft 502 kts 76°
2026-05-06 16:12 51.81353 0.66789 38977 ft 501 kts 76°
2026-05-06 16:12 51.83050 0.77709 38972 ft 501 kts 76°
2026-05-06 16:13 51.84959 0.88608 38972 ft 500 kts 74°
2026-05-06 16:13 51.86880 0.99419 38972 ft 500 kts 73°
2026-05-06 16:14 51.88863 1.10226 38972 ft 500 kts 74°
2026-05-06 16:14 51.90793 1.21043 38969 ft 500 kts 74°
2026-05-06 16:15 51.92733 1.31847 38965 ft 500 kts 74°
2026-05-06 16:15 51.94654 1.42683 38964 ft 500 kts 74°
2026-05-06 16:16 51.96571 1.53519 38961 ft 500 kts 74°
2026-05-06 16:16 51.98475 1.64376 38957 ft 501 kts 75°
2026-05-06 16:17 52.00213 1.75287 38970 ft 500 kts 76°
2026-05-06 16:17 52.01976 1.86217 38970 ft 501 kts 76°
2026-05-06 16:18 52.03355 1.95356 38970 ft 501 kts 77°
2026-05-06 16:18 52.05057 2.06345 38966 ft 501 kts 76°
2026-05-06 16:19 52.06728 2.17332 38963 ft 501 kts 77°
2026-05-06 16:19 52.08395 2.28322 38957 ft 501 kts 77°
2026-05-06 16:20 52.10051 2.39329 38948 ft 501 kts 77°
2026-05-06 16:20 52.11765 2.50396 38956 ft 501 kts 72°
2026-05-06 16:21 52.13846 2.61233 38954 ft 502 kts 73°
2026-05-06 16:21 52.15901 2.72098 38953 ft 502 kts 73°
2026-05-06 16:22 52.17958 2.82967 38949 ft 502 kts 73°
2026-05-06 16:22 52.19999 2.93865 38947 ft 503 kts 73°
2026-05-06 16:23 52.22035 3.04770 38937 ft 503 kts 74°
2026-05-06 16:23 52.24058 3.15685 38936 ft 503 kts 74°
2026-05-06 16:24 52.25622 3.26731 38966 ft 499 kts 89°
2026-05-06 16:24 52.25750 3.38072 38951 ft 500 kts 90°
2026-05-06 16:25 52.25842 3.49424 38947 ft 500 kts 90°
2026-05-06 16:25 52.25932 3.60765 38945 ft 500 kts 91°
2026-05-06 16:26 52.26005 3.72119 38937 ft 500 kts 91°
2026-05-06 16:26 52.26073 3.83478 38929 ft 500 kts 91°
2026-05-06 16:27 52.26125 3.94923 38920 ft 500 kts 91°
2026-05-06 16:27 52.26168 4.06276 38921 ft 500 kts 91°
2026-05-06 16:28 52.26198 4.17553 38909 ft 500 kts 91°
2026-05-06 16:28 52.26219 4.27799 38908 ft 499 kts 91°
2026-05-06 16:29 52.26229 4.38940 38907 ft 499 kts 91°
2026-05-06 16:29 52.26230 4.49877 38902 ft 499 kts 91°
2026-05-06 16:30 52.26223 4.59363 38905 ft 499 kts 91°
2026-05-06 16:30 52.26200 4.72506 38907 ft 498 kts 92°
2026-05-06 16:31 52.26168 4.83820 38915 ft 499 kts 92°
2026-05-06 16:31 52.26126 4.95156 38912 ft 499 kts 92°
2026-05-06 16:32 52.26072 5.06479 38903 ft 499 kts 92°
2026-05-06 16:32 52.26008 5.17739 38900 ft 500 kts 92°
2026-05-06 16:33 52.25934 5.29074 38902 ft 500 kts 92°
2026-05-06 16:34 52.25804 5.45667 38899 ft 500 kts 92°
2026-05-06 16:34 52.25702 5.57028 38900 ft 501 kts 92°
2026-05-06 16:35 52.25590 5.68290 38893 ft 501 kts 92°
2026-05-06 16:35 52.25466 5.79664 38895 ft 501 kts 93°
2026-05-06 16:36 52.25332 5.91040 38897 ft 501 kts 93°
2026-05-06 16:36 52.25186 6.02419 38894 ft 502 kts 93°
2026-05-06 16:37 52.25029 6.13801 38894 ft 502 kts 93°
2026-05-06 16:37 52.24860 6.25206 38881 ft 502 kts 93°
2026-05-06 16:38 52.24682 6.36593 38875 ft 503 kts 93°
2026-05-06 16:38 52.24492 6.48000 38872 ft 502 kts 94°
2026-05-06 16:39 52.24291 6.59390 38872 ft 502 kts 94°
2026-05-06 16:39 52.24079 6.70792 38872 ft 502 kts 94°
2026-05-06 16:40 52.23857 6.82166 38868 ft 502 kts 94°
2026-05-06 16:40 52.23623 6.93563 38872 ft 502 kts 94°
2026-05-06 16:41 52.23378 7.04948 38869 ft 502 kts 94°
2026-05-06 16:41 52.23122 7.16339 38873 ft 502 kts 94°
2026-05-06 16:42 52.22856 7.27716 38868 ft 502 kts 94°
2026-05-06 16:42 52.22579 7.39083 38866 ft 502 kts 95°
2026-05-06 16:43 52.22290 7.50474 38869 ft 502 kts 95°
2026-05-06 16:43 52.21990 7.61862 38873 ft 503 kts 95°
2026-05-06 16:44 52.21680 7.73242 38884 ft 503 kts 95°
2026-05-06 16:44 52.21358 7.84642 38879 ft 503 kts 95°
2026-05-06 16:45 52.21026 7.96015 38866 ft 502 kts 95°
2026-05-06 16:45 52.20682 8.07401 38857 ft 503 kts 95°
2026-05-06 16:46 52.20326 8.18842 38852 ft 502 kts 95°
2026-05-06 16:46 52.20146 8.30212 38870 ft 504 kts 85°
2026-05-06 16:47 52.20995 8.41608 38853 ft 507 kts 85°
2026-05-06 16:47 52.21849 8.53013 38845 ft 506 kts 85°
2026-05-06 16:48 52.22680 8.64410 38839 ft 506 kts 85°
2026-05-06 16:48 52.23507 8.75812 38836 ft 506 kts 85°
2026-05-06 16:49 52.24318 8.87218 38828 ft 506 kts 85°
2026-05-06 16:49 52.25123 8.98639 38827 ft 506 kts 85°
2026-05-06 16:50 52.25914 9.10066 38824 ft 506 kts 85°
2026-05-06 16:50 52.26695 9.21483 38819 ft 507 kts 86°
2026-05-06 16:51 52.27466 9.32922 38817 ft 507 kts 86°
2026-05-06 16:51 52.28216 9.44225 38820 ft 508 kts 86°
2026-05-06 16:52 52.28964 9.55661 38821 ft 507 kts 86°
2026-05-06 16:52 52.29704 9.67156 38823 ft 508 kts 86°
2026-05-06 16:53 52.30432 9.78638 38821 ft 508 kts 86°
2026-05-06 16:53 52.31149 9.90117 38815 ft 508 kts 86°
2026-05-06 16:54 52.31736 9.99669 38817 ft 508 kts 86°
2026-05-06 16:54 52.32434 10.11186 38812 ft 509 kts 86°
2026-05-06 16:55 52.33121 10.22701 38795 ft 510 kts 86°
2026-05-06 16:55 52.33797 10.34237 38796 ft 509 kts 86°
2026-05-06 16:56 52.34461 10.45760 38797 ft 510 kts 86°
2026-05-06 16:56 52.35117 10.57336 38797 ft 511 kts 87°
2026-05-06 16:57 52.35750 10.68720 38799 ft 511 kts 87°
2026-05-06 16:57 52.36361 10.80284 38796 ft 510 kts 91°
2026-05-06 16:58 52.36578 10.91875 38794 ft 510 kts 90°
2026-05-06 16:58 52.36810 11.03479 38797 ft 510 kts 91°
2026-05-06 16:59 52.37005 11.15083 38801 ft 511 kts 90°
2026-05-06 16:59 52.37208 11.26701 38798 ft 511 kts 91°
2026-05-06 17:00 52.37388 11.38328 38793 ft 511 kts 91°
2026-05-06 17:00 52.37563 11.49941 38798 ft 511 kts 91°
2026-05-06 17:01 52.37723 11.61577 38798 ft 512 kts 91°
2026-05-06 17:01 52.37874 11.73239 38798 ft 513 kts 91°
2026-05-06 17:02 52.38012 11.84886 38807 ft 512 kts 91°
2026-05-06 17:02 52.38139 11.96549 38803 ft 512 kts 91°
2026-05-06 17:03 52.38253 12.07915 38809 ft 512 kts 91°
2026-05-06 17:03 52.38357 12.19558 38808 ft 512 kts 91°
2026-05-06 17:04 52.38450 12.31229 38810 ft 512 kts 91°
2026-05-06 17:04 52.38533 12.42891 38812 ft 513 kts 91°
2026-05-06 17:05 52.38601 12.54472 38819 ft 513 kts 91°
2026-05-06 17:05 52.38661 12.66156 38822 ft 513 kts 91°
2026-05-06 17:06 52.38706 12.77358 38824 ft 513 kts 92°
2026-05-06 17:06 52.38742 12.88916 38825 ft 513 kts 92°
2026-05-06 17:07 52.38767 13.00346 38828 ft 514 kts 92°
2026-05-06 17:07 52.38780 13.12009 38831 ft 514 kts 92°